Location: Newark
(9.4667°S, 159.8167°E)
Time: 13:43:11
(UTC+00:00)

Vanguard 1 - Pass Details

Date: 17 November 2019
Orbit: 652 x 3832 km, 34.3° (Epoch: 10 December)

Event Time Altitude Azimuth Distance (km) Brightness Sun altitude
Rises 07:45:56 0° 334° (NNW) 3,452 13.0 -6.3°
Reaches altitude 10° 07:48:19 10° 345° (NNW) 2,753 12.3 -6.9°
Maximum altitude 07:54:12 32° 47° (NE) 2,186 11.4 -8.2°
Drops below altitude 10° 08:03:47 10° 105° (ESE) 4,574 13.0 -10.4°
Sets 08:09:06 0° 113° (ESE) 6,164 13.7 -11.6°
